TimeEST,TemperatureF,Dew PointF,Humidity,Sea Level PressureIn,VisibilityMPH,Wind Direction,Wind SpeedMPH,Gust SpeedMPH,PrecipitationIn,Events,Conditions,WindDirDegrees,DateUTC
12:56 AM,27.0,19.0,72,30.01,10.0,East,6.9,-,N/A,,Clear,100,2012-11-07 05:56:00
1:56 AM,26.1,18.0,71,30.00,10.0,ENE,4.6,-,N/A,,Clear,70,2012-11-07 06:56:00
2:56 AM,25.0,18.0,75,30.00,10.0,East,5.8,-,N/A,,Clear,90,2012-11-07 07:56:00
3:56 AM,25.0,18.0,75,29.97,10.0,East,3.5,-,N/A,,Clear,80,2012-11-07 08:56:00
4:56 AM,24.1,18.0,77,29.97,10.0,East,5.8,-,N/A,,Clear,80,2012-11-07 09:56:00
5:56 AM,24.1,18.0,77,29.99,10.0,East,4.6,-,N/A,,Clear,90,2012-11-07 10:56:00
6:56 AM,25.0,19.0,78,30.00,10.0,ENE,5.8,-,N/A,,Clear,60,2012-11-07 11:56:00
7:56 AM,26.1,19.9,78,30.02,10.0,ENE,4.6,-,N/A,,Clear,70,2012-11-07 12:56:00
8:56 AM,28.0,21.0,75,30.02,10.0,East,8.1,-,N/A,,Clear,80,2012-11-07 13:56:00
9:56 AM,30.9,19.0,61,30.02,10.0,East,9.2,-,N/A,,Clear,80,2012-11-07 14:56:00
10:56 AM,33.1,18.0,54,30.01,10.0,East,9.2,-,N/A,,Clear,80,2012-11-07 15:56:00
11:56 AM,34.0,17.1,50,29.99,10.0,NE,8.1,-,N/A,,Clear,40,2012-11-07 16:56:00
12:56 PM,37.0,10.9,34,29.97,10.0,NE,4.6,-,N/A,,Clear,50,2012-11-07 17:56:00
1:56 PM,41.0,12.0,31,29.96,10.0,Variable,5.8,-,N/A,,Clear,0,2012-11-07 18:56:00
2:56 PM,39.9,10.9,31,29.96,10.0,North,6.9,-,N/A,,Clear,10,2012-11-07 19:56:00
3:56 PM,39.9,12.0,32,29.98,10.0,NNE,8.1,-,N/A,,Clear,20,2012-11-07 20:56:00
4:56 PM,37.9,14.0,38,30.00,10.0,North,10.4,-,N/A,,Clear,10,2012-11-07 21:56:00
5:56 PM,36.0,14.0,41,30.02,10.0,North,6.9,-,N/A,,Clear,10,2012-11-07 22:56:00
6:56 PM,34.0,15.1,46,30.03,10.0,NNE,6.9,-,N/A,,Clear,30,2012-11-07 23:56:00
7:56 PM,33.1,15.1,48,30.03,10.0,NNE,6.9,-,N/A,,Clear,20,2012-11-08 00:56:00
8:56 PM,30.9,17.1,57,30.04,10.0,NNE,6.9,-,N/A,,Clear,20,2012-11-08 01:56:00
9:56 PM,30.9,18.0,59,30.04,10.0,NNE,9.2,-,N/A,,Clear,20,2012-11-08 02:56:00
10:56 PM,30.0,18.0,61,30.02,10.0,NNE,4.6,-,N/A,,Clear,20,2012-11-08 03:56:00
11:56 PM,28.9,18.0,64,30.03,10.0,North,4.6,-,N/A,,Clear,350,2012-11-08 04:56:00